Volver al catálogo

KUIPER-00056

ActivoComunicacionesLEO
NORAD 64516·PAYLOAD·🇺🇸 United States

Lanzado Jun 23, 2025 desde Cape Canaveral Space Force Station

Loading…

Próximos Pases (próximas 24 horas)

TLE

ActualizadoSource: CelesTrak SupGP

Época: Sep 15, 2026, 03:51 UTC

1 64516C 25134S   26258.16049769  .00003772  00000+0  49372-3 0  2586
2 64516  51.9003 105.3157 0001052 107.7425 235.9733 14.79933315    16

Sigue KUIPER-00056 en tiempo real con AllMySat

Download on the App Store